Race Results for
Tri-Flow Menlo Park Grand Prix presented by Hawk R
Menlo Park, CA
(Event Information)
View By:
Criterium on 03/08/2009

Note: Ranking points are NOT upgrade points. An explanation of ranking points can be found here.


Men - Pro/Cat 1/2

 Place Points NameCity, StateTime USAC #BibTeam
1323.43Daniel Holloway   Morgan Hill, CA00:00:00.00 181725  759 VMG-FELT
2329.10John Wilk   Oakland, CA00:00:00.00 199951  747 Sierra Pacific Racing
3334.77Andy Jacques-Maynes   Watsonville, CA00:00:00.00 17590  783 Unattached
4340.44Fabrice DUBOST   Menlo Park, CA00:00:00.00 280966  713 Webcor alto velo
5346.11Dan Martin   Pleasanton, CA00:00:00.00 179386  728 Safeway/Bicycle Plus
6351.78Stephen Pelaez   San Francisco, CA00:00:00.00 64481  775 NorCal Elite Cycling
7357.45Dylan Seguin   Boise, ID00:00:00.00 44296  742 TEAM CLIF BAR Cycling
8363.12Rand Miller   San Francisco, CA00:00:00.00 182990  798 Webcor/Alto Velo
9368.79Chris Wire   Saratoga, CA00:00:00.00 152176  700 SJBC/SugarCRM
10374.46Dylan Clark   Auburn, CA00:00:00.00 243069  706 Safeway/ Bicycles Plus
11Jonathan Coulter   00:00:00.00  708 Bissell
12385.80Kalen Gruber   Los Altos Hills, CA00:00:00.00 49467  719 SugarCRM
13391.47Ryan Wong   San Jose, CA00:00:00.00 42770  731 Form Fitness
14397.14Benjamin Lyon (1 - Cat2)   San Francisco, CA00:00:00.00 227794  727 Arete' Racing
15402.81Jackson Stewart   San Jose, CA00:00:00.00 42023  758 UCI PCT: BMC Racing Team
16408.48Filip Vanacht   Los Altos, CA00:00:00.00 245198  749 SugarCRM
17414.15Philip Roberts   Oakland, CA00:00:00.00 30110  740 Kaiser Permanente/Team Oakland
18419.82Chris Stastny   Vacaville, CA00:00:00.00 249743  744 Davis Bike Club
19425.49Ryan Prsha (2 - Cat2)   San Jose, CA00:00:00.00 247068  734 Webcor/Alto Velo
20431.16Jan Weissenberger   San Francisco, CA00:00:00.00 186678  751 Active Athlete/Squadra Ovest
21436.83Alden Tanaka   San Mateo, CA00:00:00.00 568  745 Velo Europa/CYFAC
22442.50Chris Carscadden   Walnut Creek, CA00:00:00.00 165751  705 HDR p/b Lombardi Sports
23448.17Clark Foy   Los Gatos, CA00:00:00.00 255066  717 SJBC/SugarCRM
24453.84Chris Turner   Los Altos, CA00:00:00.00 253101  748 Above Category Racing
25459.51Charlie Avis   Palo Alto, CA00:00:00.00 224306  701 Team Specialized Racing Junior
26465.18Uthman Ray IV   Oakland, CA00:00:00.00 146803  736 RH Villa/IAS
27470.85Eric Balfus   Los Gatos, CA00:00:00.00 690  703 SugarCRM
28476.52Bo Hebenstreit   Campbell, CA00:00:00.00 196276  720 Webcor/Alto Velo
29482.19Andrew Nevitt   Saratoga, CA00:00:00.00 47463  730 SJBC/SugarCRM
30487.86William Innes   Menlo Park, CA00:00:00.00 52412  722 Team Specialized Racing
31493.53James Badia   Redwood City, CA00:00:00.00 200949  702 Webcor/Alto Velo
32499.20Stephen DeLong   Tucson, AZ00:00:00.00 230310  760 HLHAP
33504.87Patrick McLaughlin   Lafayette, CA00:00:00.00 227027  729 Wells Fargo Racing Team
34510.54Justin Lucke   Redwood City, CA00:00:00.00 21760  726 SugarCRM
35516.21Daniel Lam   Kalamazoo, MI00:00:00.00 239504  725 TBS Racing
36521.88David Del Rosso   Dublin, CA00:00:00.00 187432  710 HDR p/b Lombardi Sports
37527.55Kirt Fitzpatrick   San Francisco, CA00:00:00.00 11765  716 Sexual Camel
38533.22Graham Simpson   Carmel Valley, CA00:00:00.00 65800  743 Webcor/Alto Velo
39538.89Tracy Colwell   Sunnyvale, CA00:00:00.00 125475  707 Webcor/Alto Velo
40544.56Dennis Hopp   San Jose, CA00:00:00.00 54895  721 Form Fitness
41550.23Darren Basso   Belmont, CA00:00:00.00 130973  704 Arete' Racing
42555.90Joel Robertson   San Leandro, CA00:00:00.00 220316  741 Sierra Pacific Racing
43561.57Nick Theobald   Burlingame, CA00:00:00.00 35297  746 SJBC/SugarCRM
44567.24Eric Fischer (3 - Cat2)   Berkeley, CA00:00:00.00 246309  715 Safeway / Bicycles Plus
45572.91Jon Erskine   Soquel, CA00:00:00.00 10942  714 SugarCRM
46578.58Sassan Golafshan   Palo Alto, CA00:00:00.00 169945  718 Form Fitness
47584.25Jeff Poulsen   Arnold, CA00:00:00.00 28533  733 Safeway/Bicycles Plus
48589.92Angelo DiGiovine   San Francisco, CA00:00:00.00 141326  712 Sportgenic / Squadra Ovest
DNSLiza Rachetto   Los Altos, CA00:00:00.00 145511   Team TIBCO
DNSJack Rector   San Ramon, CA00:00:00.00 29332   Form Fitness
DNSSteve Reaney   San Jose, CA00:00:00.00 133288   California Giant Berry Farms/S
DNSTed Toribio   Elk Grove00:00:00.00 88963   International Christian Cyclin
DNPGreg Davis   Los Altos, CA00:00:00.00 119459  709 SugarCRM
DNPJan Diemont (Cat2)   Sunnyvale, CA00:00:00.00 101781  711 
DNPGreg Juneau   Milpitas, CA00:00:00.00 155436  723 Team SugarCRM
DNPBrian Laird   Menlo Park, CA00:00:00.00 20154  724 Labor Power
DNPErick Pierce   Oakland, CA00:00:00.00 209459  732 SugarCRM
DNPJess Raphael   Napa, CA00:00:00.00 221460  735 Safeway / Bicycles Plus
DNPNathan Shaw   Castro Valley, CA00:00:00.00 196249  737 Garden City Cyclists
DNPLance Cameron   Pacific Grove, CA00:00:00.00 5900  738 Kingsnorth International Wheel
DNPSteven Reid   Scotts Valley, CA00:00:00.00 219416  739 SugarCRM
DNPEric Walle   Berkeley, CA00:00:00.00 186029  750 TEAM CLIF BAR Cycling
DNPNathan Freed   Tahoe City, CA00:00:00.00 86484  772 Cyclepaths/Wild Cherries Racin
DNPPatrick Briggs   Oakland, CA00:00:00.00 4838  799 California Giant Cycling

Men - Cat 1/2/3/4 - Master - 45-99

 Place Points NameCity, StateTime USAC #BibTeam
1382.30Jeff Poulsen   Arnold, CA00:00:00.00 28533  438 Safeway/Bicycles Plus
2386.08Bill Nicely   San Ramon, CA00:00:00.00 215434  428 Rubber Soul/CSC Racing Team
3389.86Mike Gadow   Dublin, CA00:00:00.00 12619  415 TIENI DURO
4393.64Clark Rasmussen   San Francisco, CA00:00:00.00 47316  441 Wells Fargo Racing Team
5397.42Daniel Smith   Menlo Park, CA00:00:00.00 33087  449 Morgan Stanley/Specialized/24h
6401.20Jeremy Wire   Menlo Park, CA00:00:00.00 285056  463 SJBC/SugarCRM
7404.98Patrick Tafoya   Redwood City, CA00:00:00.00 34910  454 Safeway/Bicyles Plus
8408.76Bud Napolio   San Francisco, CA00:00:00.00 60298  426 Wells Fargo Racing Team
9412.54Craig Stewart   Orinda, CA00:00:00.00 205201  465 Synergy-Taleo
10416.32R Todd Marshall   Sacramento, CA00:00:00.00 43936  423 Armstong & Assoc./ FCI Lending
11420.10Eric Saltzman   Menlo Park, CA00:00:00.00 46157  446 Morgan Stanley/Team Spine/Spec
12423.88Clark Foy   Los Gatos, CA00:00:00.00 255066  414 SJBC/SugarCRM
13427.66Robert Parker   San Jose, CA00:00:00.00 48416  432 Webcor/Alto Velo
14431.44Andrew Nevitt   Saratoga, CA00:00:00.00 47463  427 SJBC/SugarCRM
15435.22Joe Saunders   San Anselmo, CA00:00:00.00 47412  447 Morgan Stanley/24 Hr Fitness/S
16439.00Steve Stewart   Los Gatos, CA00:00:00.00 34158  451 SugarCRM
17442.78Paul DeBacker   Mountain View, CA00:00:00.00 168436  409 Webcor/Alto Velo
18446.56John O'Neill   San Mateo, CA00:00:00.00 52722  430 clover
19450.34Vladan Strbac   Scotts Valley, CA00:00:00.00 259261  452 Team Bicycle Trip
20454.12Chris Gaffney   San Jose, CA00:00:00.00 286526  416 Webcor/Alto Velo
21457.90Joe Fabris   Los Gatos, CA00:00:00.00 189959  412 Fightin' Bobas - Trail Head
22461.68Russell Cadwallader   Aptos, CA00:00:00.00 5785  406 Team Bicycle Trip
23465.46David Buccola   Pleasanton, CA00:00:00.00 195485  405 InfoVista Cycling Team
24469.24Peter Sweeney   Santa Rosa, CA00:00:00.00 51872  453 Fightin' Bobas
25473.02Vincent Gee   Sacramento, CA00:00:00.00 13001  417 EMC2-Felt
26476.80Thomas Feix   Moss Beach, CA00:00:00.00 11403  413 Peninsula Velo Cycling Club
27480.58Oswaldo Orozco   San Francisco, CA00:00:00.00 47530  431 SJBC/SugarCRM
28484.36Dennis Pedersen   Santa Cruz, CA00:00:00.00 126404  435 Team Bicycle Trip
29488.14Mark Walsh   Sacramento, CA00:00:00.00 46040  460 Berkeley Bicycle Club
30491.92Leon Pitts   Carmel, CA00:00:00.00 213367  466 VOS Racing
31495.70Douglas McKenzie   Santa Rosa, CA00:00:00.00 201588  425 Fightin' Bobas
32499.48Rick Martyn   Pleasant Hill, CA00:00:00.00 204699  419 VOS Racing
33503.26Michael Vella   Saratoga, CA00:00:00.00 167402  459 Webcor /Alto Velo
34507.04Andrew Posselt   Mill Valley, CA00:00:00.00 216827  437 Active Athlete/Squadra Ovest
35510.82Tony Reid   Sacramento, CA00:00:00.00 29458  442 Safeway / Bicycles Plus
36514.60Jeffrey Purcell   Hughson, CA00:00:00.00 53815  439 InfoVista Cycling Team
37518.38Martin Wolff   Carmel, CA00:00:00.00 203646  464 VOS-Cycles Gladiator
38522.16Thomas Chapple   Mountain View, CA00:00:00.00 6646  407 CoachThomas.com
39525.94Randy Armstrong   Morgan Hill, CA00:00:00.00 47828  401 SJBC/SugarCRM
40529.72Franz Broz   Pebble Beach, CA00:00:00.00 155801  404 VOS-Cycles Gladiator
41533.50Phillip Heiman   Penngrove, CA00:00:00.00 204100  421 Colavita/Sutterhome-Norcal
42537.28Jorge Pont   Menlo Park, CA00:00:00.00 237177  436 Webcor / Alto Velo
43541.06Michael Rizzo   Morgan Hill, CA00:00:00.00 59049  444 SJBC/SugarCRM
44544.84Darryl Smith   Pleasanton, CA00:00:00.00 33092  456 International Christian Cyclin
45548.62Joseph Clifford   Roseville, CA00:00:00.00 232661  408 Taleo Racing
46552.40George Smith   Menlo Park, CA00:00:00.00 168005  450 Webcor/Alto Velo
47556.18Nelson Willhite   Sunnyvale, CA00:00:00.00 219614  462 SERT/Sho-Air
48559.96Shin Umeda   Sunnyvale, CA00:00:00.00 46023  457 Webcor/Alto Velo
49563.74Larry Hampson   Marina, CA00:00:00.00 49323  420 VOS-Cycles Gladiator
50567.52Carmelo Rios   San Jose, CA00:00:00.00 261379  443 Fighin' Bobas
51571.30Jess Raphael   Napa, CA00:00:00.00 221460  440 Safeway / Bicycles Plus
52575.08Max Thompson   San Anselmo, CA00:00:00.00 80642  455 Morgan Stanley/Team Spine/Spec
53578.86William Dunham   San Jose, CA00:00:00.00 206162  411 Webcor/Alto Velo
54582.64Alan Nielson   Dublin, CA00:00:00.00 236183  429 Wells Fargo Racing Team
55586.42Derrick Hemingway   San Jose, CA00:00:00.00 259077  422 SJBC/SugarCRM
56590.20Philippe Azoulay   San Jose, CA00:00:00.00 207662  402 SJBC/SugarCRM
DNSDavid Anderson   Encinitas , CA00:00:00.00 1608   Morgan Stanley/Team Spine/Spec
DNSDavid Baldwin   Santa Rosa, CA00:00:00.00 155530   Fightin' Bobas
DNSRaymond Gildea   Emerald Hills, CA00:00:00.00 133970   Peninsula Velo/ Pomodoro
DNSMark Mastoras   San Bruno, CA00:00:00.00 117797   Sportgenic Squadra Ovest
DNSCraig Parker   Mill Valley, CA00:00:00.00 127588   ZteaM
DNSPatrick Pecknold   Brentwood, CA00:00:00.00 203484   Metromint Cycling
DNSMark Vandenberghe   Lafayette, CA00:00:00.00 36393   Wells Fargo Racing Team
DNSRusk Whipps   Petaluma, CA00:00:00.00 266460   Sierra Express
DNSSteven Gile   Salinas, CA00:00:00.00 98978   VOSracing
DNSTed Toribio   Elk Grove00:00:00.00 88963   International Christian Cyclin
DNPDavid Del Rosso   Dublin, CA00:00:00.00 187432  410 HDR p/b Lombardi Sports
DNPCraig Robertson   Los Altos, CA00:00:00.00 240115  445 Wells Fargo Racing Team
DNPJonathan Sek   00:00:00.00  448 SJBC/SugarCRM

Men - Cat 1/2/3/4 - Master - 55-99

 Place Points NameCity, StateTime USAC #BibTeam
1471.57Mac Carey   Pleasant Hill, CA00:00:00.00 249301  484 Taleo Racing
2478.54James Langley   Santa Cruz, CA00:00:00.00 20326  490 Team Bicycle Trip
3485.51Greg Bollella   Redwood City, CA00:00:00.00 235126  481 Webcor / Alto Velo
4492.48Gordon Martine   Pacific Grove, CA00:00:00.00 218819  493 VOS-cycles gladiator
5499.45Paul Langlois   Santa Rosa, CA00:00:00.00 20330  491 Fightin' Bobas
6506.42Brian Fessenden   Orinda, CA00:00:00.00 54692  488 Morgan Stanley/Team Spine/Spec
7513.39Dana Farmer   Gold River, CA00:00:00.00 150815  486 VOS-Cycles Gladiator
8520.36David Puglia   Saratoga, CA00:00:00.00 180139  495 EASTON/Specialized/SugarCRM
9527.33Bruce Coffey   Newman, CA00:00:00.00 271696  499 SJBC/SugarCRM
10534.30Steve Esswein (1 - Cat4)   Cupertino, CA00:00:00.00 204759  485 Webcor / Alto Velo
11541.27Ernest Gallardo Sr   Soledad Ca.00:00:00.00 12682  489 VOS-Cycles Gladiator
12548.24Lawrence Broberg   Felton, CA00:00:00.00 4905  483 team bicycle trip
13555.21Manuel Borges   Vacavaille, CA00:00:00.00 254360  482 VOS-Cycles Gladiator
14562.18Richard Shields   Fremont, CA00:00:00.00 140693  496 Team Hammer Nutrition
15569.15Peter Piepul   San Jose, CA00:00:00.00 28118  494 SJBC/SugarCRM
16576.12Albert Barreto   Monterey, CA00:00:00.00 195743  480 VOS-Cycles Gladiator
17583.09Lawrence Szabo   Oakland, CA00:00:00.00 145186  498 Kaiser Permanente/Team Oakland
18590.06David Stockwell   San Jose, CA00:00:00.00 53052  497 SJBC/SugarCRM
DNSPeter Ferguson   00:00:00.00   NorCal Bike Forums
DNSDan Lekovish   San Leandro, CA00:00:00.00 254610   Taleo Racing

Men - Cat 3

 Place Points NameCity, StateTime USAC #BibTeam
1463.70John Foster   Mountain View, CA00:00:00.00 43445  773 Form Fitness
2467.62Craig Stewart   Orinda, CA00:00:00.00 205201  795 Taleo Racing
3471.54Josh LaGrange   Bend, OR00:00:00.00 201330  780 Form Fitness
4475.46Joel Shaffer   Los Altos Hills, CA00:00:00.00 208502  792 Team Specialized Racing
5479.38Benjamin Dodge   San Jose, CA00:00:00.00 178595  768 LGBRC-Specialized
6483.30Brandon Correia   Alameda, CA00:00:00.00 188308  764 Godspeed Courier
7487.22Tom Rosencrantz   Mill Valley, CA00:00:00.00 91336  791 Taleo Racing
8491.14Earle Baker   San Jose, CA00:00:00.00 204436  755 TBS Racing
9495.06Maurice Monge   San Jose, CA00:00:00.00 257119  785 SJBC/SugarCRM
10498.98Robert (Grant) Riggs   Burlingame, CA00:00:00.00 254731  790 Peninsula Velo Cycling Club
11502.90Murat Ozgur   Los Altos, CA00:00:00.00 41335  786 Sportgenic/Squadra Ovest
12506.82Keith Jordon   Hayward, CA00:00:00.00 254515  778 Berkeley Bicycle Club (BBC)
13510.74Nick Hanni   San Francisco00:00:00.00 96693  776 Fusion Sport
14514.66Cyrus Behroozi   Menlo Park, CA00:00:00.00 40408  757 Page Mill Racing
15518.58Tony Homes   Danville, CA00:00:00.00 210572  777 Wells Fargo Racing Team
16522.50yuma koishi   Cupertino, CA00:00:00.00 273567  779 SJBC/SugarCRM
17526.42Michael Vella   Saratoga, CA00:00:00.00 167402  797 Webcor /Alto Velo
18530.34William Dunham   San Jose, CA00:00:00.00 206162  769 Webcor/Alto Velo
19534.26Sean Smith   Oakland, CA00:00:00.00 204018  793 California Giant Strawberry
20538.18David Acri   San Francisco00:00:00.00 233803  752 squadra ovest
21542.10David Pouncy   Piedmont, CA00:00:00.00 248071  788 Berkeley Bicycle Club (BBC)
22546.02Michael Egan   West Sacrametno, CA00:00:00.00 124893  770 Sacramento Golden Wheelmen
23549.94Daniel Farinha   San Jose, CA00:00:00.00 240558  771 SJBC/SugarCRM
DNSMatt Bokemeier   San Jose, CA00:00:00.00 254319   SJBC/SugarCRM
DNSSantiago Bolon   San Jose, CA00:00:00.00 195384   ICCC
DNSMichael Flynn   San Jose, CA00:00:00.00 154840   SJBC/SugarCRM
DNSBret Martin   Oakland, CA00:00:00.00 60446   Sycip
DNSPatrick Pecknold   Brentwood, CA00:00:00.00 203484   Metromint Cycling
DNSPeter Wood   Cupertino, CA00:00:00.00 196669   ThirstyBear/CVC/Barlata/3RingC
DNSAnthony Borba   Campbell, CA00:00:00.00 255377   Third Pillar
DNSKeith Williams   Stockton, CA00:00:00.00 158389   Pacific State Bank Cycling Tea
DNPChris Patterson   Hayward, CA00:00:00.00 88722  753 FormFitness
DNPRamon Alarcon   Los Gatos, CA00:00:00.00 240484  754 SJBC/SugarCRM
DNPNeil Bartley   San Jose, CA00:00:00.00 209268  756 Berkeley Bicycle Club (BBC)
DNPDavid Buccola   Pleasanton, CA00:00:00.00 195485  761 InfoVista Cycling Team
DNPTed Burns   Madison, WI00:00:00.00 51292  762 Webcor/Alto Velo
DNPThomas Carpenter   Oakland, CA00:00:00.00 169740  763 Kaiser Permanente/TeamOakland
DNPBenjamin Cota   San Jose, CA00:00:00.00 7881  765 BSA Racing
DNPKieran Cox   Oakland, CA00:00:00.00 244305  766 Team Oakland
DNPMark Davis   Scotts Valley, CA00:00:00.00 64246  767 Third Pillar
DNPMark Gagner   San Jose, CA00:00:00.00 169733  774 Form Fitness Racing
DNPToby Long   Oakland, CA00:00:00.00 262539  781 Kaiser Permanente / Team Oakla
DNPTodd Manley   San Jose, CA00:00:00.00 253905  782 SJBC/SugarCRM
DNPPaul Mircik   Los Altos, CA00:00:00.00 126621  784 Easton/SugarCRM/Specialized
DNPAaron Hanna   San Jose, CA00:00:00.00 204722  787 Easton/SugarCRM/Specialized
DNPTony Reid   Sacramento, CA00:00:00.00 29458  789 Safeway / Bicycles Plus
DNPShane Stent   00:00:00.00  794 Form Fitness
DNPCody Tapley   Citrus Heights, CA00:00:00.00 234610  796 Davis Bike club

Men - Cat 3/4 - Master - 35-99

 Place Points NameCity, StateTime USAC #BibTeam
1477.39Jon Swanson   West Lake Village, CA00:00:00.00 226835  686 Specialized
2478.73Andrew Kennedy   Martinez, CA00:00:00.00 257276  645 Team Hammer Nutrition p/b Kenn
3480.07wayne hansen   Palo Alto, CA00:00:00.00 272247  637 VeloTech Cycles Palo Alto
4481.41Jeff Eisenberg   San Francisco, CA00:00:00.00 231993  650 Fusion Sport USA
5482.75Murray Swanson   Woodside, CA00:00:00.00 206144  687 Peninsula Velo/Pomodoro
6484.09Mac Heebner   Oakland, CA00:00:00.00 252751  639 Dolce Vita Cycling
7485.43Ernest Gallardo   Greenfield, CA00:00:00.00 90586  635 VOS-Cycles Gladiator
8486.77Jeremy Wire   Menlo Park, CA00:00:00.00 285056  697 SJBC/SugarCRM
9488.11Michael Flynn   San Jose, CA00:00:00.00 154840  633 SJBC/SugarCRM
10489.45Richard Jones   Oakland, CA00:00:00.00 122040  644 Team Oakland/Kaiser Permanente
11490.79Mark Robertson   Oakland, CA00:00:00.00 237380  678 Taleo Racing
12492.13Mitch Bramlett   Santa Cruz, CA00:00:00.00 4611  619 Third Pillar
13493.47Aron Bonar   Mountain View, CA00:00:00.00 195327  616 Sycip/Schwalbe
14494.81Steve Stewart   Los Gatos, CA00:00:00.00 34158  685 SugarCRM
15496.15Scott Riddle   San Jose, CA00:00:00.00 270475  676 SJBC/SugarCRM
16497.49Bill Nicely   San Ramon, CA00:00:00.00 215434  663 Rubber Soul/CSC Racing Team
17498.83R Todd Marshall   Sacramento, CA00:00:00.00 43936  657 Armstong & Assoc./ FCI Lending
18500.17David Acri   San Francisco00:00:00.00 233803  601 squadra ovest
19501.51Steven Kirby   Santa Rosa, CA00:00:00.00 271079  647 colavita/sutterhome-norcal
20502.85Michael Saba   Oakland, CA00:00:00.00 285459  683 Taleo Racing
21504.19Steven Woo   Los Altos, CA00:00:00.00 38840  652 Easton/SugarCRM/Specialized
22505.53Jeffrey Lin   Cupertino, CA00:00:00.00 286962  636 Team Integrate/FFBC
23506.87Carmelo Rios   San Jose, CA00:00:00.00 261379  656 Fightin' Bobas
24508.21Paul O'Reilly (1 - Cat3)   South San Francisco, CA00:00:00.00 155042  664 Peninsula Velo Pomodoro
25509.55Michael Boehme   Windsor, CA00:00:00.00 252576  612 Colavita/Sutterhome-Norcal
26510.89William Ruffner   Morgan Hill, CA00:00:00.00 220929  682 TBS Racing
27512.23Greg Bollella   Redwood City, CA00:00:00.00 235126  614 Webcor / Alto Velo
28513.57Karl Wurzbach   Fairfield, CA00:00:00.00 260329  698 Davis Bike Club
29514.91Devin Koch   Truckee, CA00:00:00.00 260704  648 Dolce Vita
30516.25sean wayman (1 - Cat4)   San Jose, CA00:00:00.00 268350  695 Team SugarCRM
31517.59Mark Davis   Scotts Valley, CA00:00:00.00 64246  628 Third Pillar
32518.93Edward Abeleven   Campbell, CA00:00:00.00 197005  600 Kaiser Permanente/Team Oakland
33520.27David Morton   Los Gatos, CA00:00:00.00 243225  662 SJBC/SugarCRM
34521.61Rich Rozzi   Hollywood Ca00:00:00.00 230031  681 Colavita/Sutterhome-Norcal
35522.95Nelson Willhite   Sunnyvale, CA00:00:00.00 219614  696 SERT/Sho-Air
36524.29Stephen Ransom (2 - Cat3)   San Francisco, CA00:00:00.00 59104  674 Dolce Vita
37525.63Ken Gallardo   Belmont, CA00:00:00.00 255453  634 Peninsula Velo/Pomodoro
38526.97Earle Baker   San Jose, CA00:00:00.00 204436  607 TBS Racing
39528.31Louis Toba   Palo Alto, CA00:00:00.00 56384  692 Webcor Alto Velo
40529.65Rob Robinson   Castro Valley, CA00:00:00.00 271386  679 InfoVista Cycling Team
41530.99Thomas Carpenter   Oakland, CA00:00:00.00 169740  623 Kaiser Permanente/TeamOakland
42532.33Henry Mar   San Bruno, CA00:00:00.00 217433  655 
43533.67Timothy Simanski   Hayward, CA00:00:00.00 223810  684 Team Roaring Mouse
44535.01Phillip Heiman   Penngrove, CA00:00:00.00 204100  640 Colavita/Sutterhome-Norcal
45536.35Gregory Bennett (2 - Cat4)   San Francisco, CA00:00:00.00 205105  610 Dolce Vita Cycling
46537.69Joe Fabris   Los Gatos, CA00:00:00.00 189959  659 Fightin' Bobas
47Luke Ashcraft   00:00:00.00  606 dolce vita
48540.37Douglas Aldrich   San Jose, CA00:00:00.00 245255  603 SJBC/SugarCRM
49541.71Derrick Hemingway   San Jose, CA00:00:00.00 259077  641 SJBC/SugarCRM
50543.05Stephen Langone   Redwood City, CA00:00:00.00 152079  651 Sierra Pacific Racing
51544.39Juan Raigoza   Redwood City, CA00:00:00.00 219477  673 Webcor / Alto Velo
52545.73Peter Sweeney   Santa Rosa, CA00:00:00.00 51872  688 Fightin' Bobas
53547.07Chris Callahan   Alamo, CA00:00:00.00 242571  621 Wells Fargo Racing Team
54548.41Andrew Posselt   Mill Valley, CA00:00:00.00 216827  669 Active Athlete/Squadra Ovest
55549.75David Puglia   Saratoga, CA00:00:00.00 180139  670 EASTON/Specialized/SugarCRM
56UNKNOWN RIDER   00:00:00.00  ??? -------
57552.43Johnnie Walker   Santa Rosa, CA00:00:00.00 235083  694 Fighten Bobas
58553.77Samuel Campbell   San Francisco, CA00:00:00.00 242549  622 Third Pillar
59555.11Scott Regan   San Jose, CA00:00:00.00 195374  675 Team Integrate/FFBC powered by Chipotle
60556.45David Rossow   Los Gatos, CA00:00:00.00 232665  680 Webcor/Alto Velo
61557.79Jonathan Hunt   San Francisco, CA00:00:00.00 260123  643 Freewheel Bike Shop
62559.13Murat Ozgur   Los Altos, CA00:00:00.00 41335  615 Active Athlete/Squadra Ovest
63560.47Ramon Alarcon   Los Gatos, CA00:00:00.00 240484  602 SJBC/SugarCRM
64561.81Nick Fitton   Livermore, CA00:00:00.00 254446  632 Wells Fargo Racing Team
65563.15Richard Shields   Fremont, CA00:00:00.00 140693  665 Hammer Nutrition
66564.49Randy Armstrong   Morgan Hill, CA00:00:00.00 47828  605 SJBC/SugarCRM
67565.83C Jeffrey Bramlett   Palo Alto, CA00:00:00.00 202272  618 Third Pillar
68567.17Roland Pieruschka (3 - Cat4)   Stanford, CA00:00:00.00 277391  667 Webcor/Alto Velo
69568.51Stephen DeLong   Tucson, AZ00:00:00.00 230310  629 Third Pillar
70569.85Steve Ball   Napa, CA00:00:00.00 59338  608 Eagle Racing Team
71571.19Jodi Birrell   Morgan Hill, CA00:00:00.00 260006  611 TBS Racing
72Rich Armendariz   00:00:00.00  604 SJBC/SugarCRM
73573.87Daniel Connelly   San Francisco, CA00:00:00.00 57307  626 Team Roaring Mouse
74575.21Dan Tedford   Mountain View, CA00:00:00.00 196695  690 Sportgenic/Squadra Ovest
75576.55John Hostetler   Boulder Creek, CA00:00:00.00 243622  642 SJBC/SugarCRM
76577.89Paul Taylor   Brentwood, CA00:00:00.00 207281  689 Metromint Cycling
77579.23Todd Kohli   San Francisco, CA00:00:00.00 198414  649 arete' racing
78580.57Joseph Clifford   Roseville, CA00:00:00.00 232661  625 Taleo Racing
79581.91Richard Peacock   Healdsburg, CA00:00:00.00 130111  661 Fightin' Bobas
80583.25Stephen Youtsey   Los Gatos, CA00:00:00.00 102258  699 Dolce Vita Cycling
81584.59David Douglas   Pleasanton, CA00:00:00.00 195436  630 InfoVista Cycling Team
82Chris King   00:00:00.00  646 Dolce Vita Cycling
83587.27Michael Chenoweth   Pensacola, FL00:00:00.00 271708  613 Sierra Bicycle Werks
84588.61Peter Tousignant   Belmont, CA00:00:00.00 231855  693 Third Pillar
85589.95Joshua Ballesteros   Brentwood, CA00:00:00.00 262160  609 Third Pillar
DNSMatt Bokemeier   San Jose, CA00:00:00.00 254319   SJBC/SugarCRM
DNSSantiago Bolon   San Jose, CA00:00:00.00 195384   ICCC
DNSBob Ebe   Lafayette, CA00:00:00.00 229180   Taleo Racing
DNSRaymond Gildea   Emerald Hills, CA00:00:00.00 133970   Peninsula Velo/ Pomodoro
DNSMichael Kopp   San Francisco, CA00:00:00.00 286893   Taleo Racing
DNSJohn Licatesi   Davis, CA00:00:00.00 183265   Davis Bike Club
DNSChristian Marsh (Cat4)   Oakland, CA00:00:00.00 255406   Metromint Cycling
DNSMark Mastoras   San Bruno, CA00:00:00.00 117797   Sportgenic Squadra Ovest
DNSKiernan McGuire (Cat4)   Mill Valley, CA00:00:00.00 211423   Dolce Vita Cycling
DNSSteven Mielich   San Jose, CA00:00:00.00 136178   SJBC/SugarCRM
DNSSteven Ohlhaber   Chicago00:00:00.00 223376   Dolce Vita Racing
DNSErik Ostly   Los Gatos, CA00:00:00.00 242604   Team SugarCRM/LGBRC
DNSJorge Pont   Menlo Park, CA00:00:00.00 237177   Webcor / Alto Velo
DNSAlejandro Quintero (Cat3)   Belmont, CA00:00:00.00 220245   Peninsula Velo/Pomodoro
DNPWhitney Bradley   Burlingame, CA00:00:00.00 118779  617 Peninsula Velo/Pomodoro
DNPmanuel calero   00:00:00.00  620 NA
DNPEric Clauss   San Francisco, CA00:00:00.00 198040  624 Sportgenic / Squadra Ovest
DNPJeff Davis   Napa , CA00:00:00.00 258258  627 Colavita/SutterHome-NorCal
DNPStephen Harris   San Francisco, CA00:00:00.00 205958  638 Sportgenic/Squadra Ovest
DNPToby Long   Oakland, CA00:00:00.00 262539  653 Kaiser Permanente / Team Oakla
DNPTravis Ma   Belmont, CA00:00:00.00 21959  654 Peninsula Velo/Pomodoro
DNPDouglas McKenzie   Santa Rosa, CA00:00:00.00 201588  660 Fightin' Bobas
DNPJonathan Racine   San Jose, CA00:00:00.00 200129  672 SJBC/SugarCRM
DNPCraig Robertson   Los Altos, CA00:00:00.00 240115  677 Wells Fargo Racing Team
DNPRob Thompson   Portland, OR00:00:00.00 272005  691 Dolce Vita Cycling

Men - Cat 4

 Place Points NameCity, StateTime USAC #BibTeam
1514.44Sam Benedict   Morgan Hill, CA00:00:00.00 194963  508 Specialized
2515.26Steven Sperling   Grand Junction, CO00:00:00.00 204146  587 Team TIBCO
3Michael Jasinski   00:00:00.00  538 chico corsa
4516.90Ryan Byars   Durham, NC00:00:00.00 266612  517 Team Roaring Mouse
5517.72Paul Ngo   San Jose, CA00:00:00.00 275571  561 Team Roaring Mouse
6518.54Luke Ramseth   Colfax, CA00:00:00.00 208152  574 Adventure's Edge
7519.36Nicholas Oliver   El Dorado Hills, CA00:00:00.00 271541  565 Rio Strada Racing
8520.18Jeromy Cottell   Redwood City, CA00:00:00.00 273912  526 Peninsula Velo / Pomodoro
9521.00benjamin joplin   Alamo, CA00:00:00.00 273316  539 Bikes 4 Life
10521.82Peter Armstrong   Lafayette, CA00:00:00.00 279806  502 Taleo Racing
11522.64Rory Osbrink   Pleasanton, CA00:00:00.00 218676  568 Hawk Relay Cycling Team
12Alexander Blease   00:00:00.00  523 
13524.28Mark Fairman   San Francisco, CA00:00:00.00 270120  531 NA
14525.10Eliot Logan   Palo Alto, CA00:00:00.00 182819  547 Webcor/Alto Velo
15525.92Devin Koch   Truckee, CA00:00:00.00 260704  542 Dolce Vita
16526.74Jeffrey Lin   Cupertino, CA00:00:00.00 286962  546 Team Integrate/FFBC powered by
17527.56Matt Abdalah   Los Altos, CA00:00:00.00 224627  500 SugarCRM/SJBC
18528.38David Mesa   Crockett, CA00:00:00.00 243257  554 squeky chains/ chica sexy
19529.20Michael Heywood   San Francisco, CA00:00:00.00 268236  564 Unattached
20530.02Mitch Bramlett   Santa Cruz, CA00:00:00.00 4611  515 Third Pillar
21530.84Josh Chauvet   Reno , NV00:00:00.00 6691  519 Team Roaring Mouse
22531.66Scott Moore   Santa Cruz, CA00:00:00.00 256976  557 JRVS
23532.48Daniel Brasse   San Mateo, CA00:00:00.00 245111  516 Third Pillar
24533.30Christopher Marcoux   Oakland, CA00:00:00.00 209137  550 NA
25534.12Matthew Triska   San Francisco, CA00:00:00.00 257229  592 Sportgenic/Squadra Ovest
26534.94Steven Au   Burlingame, CA00:00:00.00 91064  503 Village Peddler
27535.76David Bangor   00:00:00.00 237996  506 satanic warmaster/chica sexy
28536.58Eric Chi   Cupertino, CA00:00:00.00 223566  521 
29537.40Eric Clauss   San Francisco, CA00:00:00.00 198040  524 Sportgenic / Squadra Ovest
30538.22Nick Fitton   Livermore, CA00:00:00.00 254446  532 Wells Fargo Racing Team
31539.04Evan Paull   Santa Cruz, CA00:00:00.00 125808  569 Webcor/Alto Velo
32539.86Henry Scholz   San Francisco, CA00:00:00.00 267795  584 Team Roaring Mouse
33540.68Jay Simons   San Francisco, CA00:00:00.00 236927  585 Third Pillar
34541.50Michael Boehme   Windsor, CA00:00:00.00 252576  512 Colavita/Sutterhome-Norcal
35542.32Juan Raigoza   Redwood City, CA00:00:00.00 219477  573 Webcor / Alto Velo
36543.14Andrew Hsu   Berkeley, CA00:00:00.00 273293  537 Webcor/Alto Velo
37543.96sean wayman   San Jose, CA00:00:00.00 268350  597 Team SugarCRM
38544.78Rob Robinson   Castro Valley, CA00:00:00.00 271386  580 InfoVista Cycling Team
39545.60Ryan Gadow   Dublin, CA00:00:00.00 271417  533 Tieni Duro
40546.42John Mills   Los Angeles, CA00:00:00.00 271452  555 Kaiser Permanente/Team Oakland
41547.24Will Rose   San Francisco, CA00:00:00.00 237997  582 squeaky chains
42548.06Landall Proctor   Detroit, MI00:00:00.00 281642  572 B Sample Racing
43548.88David Rossow   Los Gatos, CA00:00:00.00 232665  583 Webcor/Alto Velo
44549.70Steven Woo   Los Altos, CA00:00:00.00 38840  599 SugarCRM
45550.52Lloyd Ranola   Oakland, CA00:00:00.00 198425  575 Sportgenic/Squadra Ovest
46551.34Scott Regan   San Jose, CA00:00:00.00 195374  577 Team Integrate/FFBC powered by Chipotle
47552.16Robert Orcutt   Scotts Valley, CA00:00:00.00 269340  567 Webcor / alto velo
48John Morris   00:00:00.00  558 Webcor / Alto Velo
49553.80Jeremy Kimmel   Somerville, MA00:00:00.00 247475  540 Sexual Camel Racing
50554.62Marvin Shieh   Mountain View, CA00:00:00.00 239098  553 
51555.44James Williams   Arcata, CA00:00:00.00 284329  535 Adventures Edge
52556.26Nicholas Tudoni   Burlingame, CA00:00:00.00 244476  593 Peninsula Velo/ Pomodoro
54557.90N/A   Oakland, CA00:00:00.00 237905  507 Berkeley Bicycle Club (BBC)
55558.72Mike Reed   Menlo Park, CA00:00:00.00 273849  576 Webcor Alto Velo
56559.54Matthew Batz   Campbell, CA00:00:00.00 103222  552 Unattached
57Jon Moeller   00:00:00.00  556 Third Pillar
58561.18Ryan Kish   Walnut Creek, CA00:00:00.00 134783  541 ZteaM Cycling
59562.00Paul Taylor   Brentwood, CA00:00:00.00 207281  590 Metromint Cycling
60562.82Gregory Bennett   San Francisco, CA00:00:00.00 205105  509 Dolce Vita Cycling
61563.64Henry Mar   San Bruno, CA00:00:00.00 217433  549 
62564.46Mark Valentino   El Dorado Hills, CA00:00:00.00 112974  595 SJBC/SugarCRM
63Josh Dapice   00:00:00.00  527 Third Pillar
64566.10Jeff Remer   El Cerrito, CA00:00:00.00 267197  578 Team Roaring Mouse
65UNKNOWN RIDER   00:00:00.00  ??? -------
66567.74Jason Turner   Redwood City, CA00:00:00.00 255158  594 Kovarus/ABTA
67568.56Thomas Mansell   San Leandro, CA00:00:00.00 276699  548 Team Oakland
68569.38K Scott Davis   Palo Alto, CA00:00:00.00 257793  528 QuadCycles
69570.20Oscar Nunez   Menlo Park, CA00:00:00.00 220085  563 Team Integrate/FFBC p/b Chipot
70571.02Gento Kusano   Cupertino, CA00:00:00.00 272300  543 SJBC/SugarCRM
71571.84Chris Spier   Los Gatos, CA00:00:00.00 276286  588 NA
72572.66Anthony Bezsylko   Chicago, IL00:00:00.00 238364  510 Metromint Cycling
73573.48Ryan Connolly   Redwood City, CA00:00:00.00 123594  525 Sexual Camel Racing
74574.30Geoffrey Kwan   Alameda, CA00:00:00.00 240055  544 Kaiser Permanente/Team Oakland
75575.12Steve Ball   Napa, CA00:00:00.00 59338  504 Eagle Racing Team
76575.94James Good   Oakland, CA00:00:00.00 254097  534 Kaiser Permanente/Team Oakland
77576.76Michael Norris   San Francisco, CA00:00:00.00 156881  562 Team Roaring Mouse
78577.58Samuel Campbell   San Francisco, CA00:00:00.00 242549  518 Third Pillar
79578.40Saeed Abedi   Mountain View, CA00:00:00.00 172270  501 Webcor/ Alto Velo
80579.22Marc-Cedric Latreille   Vallejo, CA00:00:00.00 260294  545 Metromint Cycling on Marin Bik
81580.04Peter Tousignant   Belmont, CA00:00:00.00 231855  591 Third Pillar
82580.86James Rosberg   San Francisco, CA00:00:00.00 215977  581 Team Roaring Mouse
83581.68Michael Hironimus   San Mateo, CA00:00:00.00 277802  536 Third Pillar
84582.50Elizabeth Newell   Oakland, CA00:00:00.00 252152  560 Veritas Cycling
85583.32Timothy Bisson   San Jose, CA00:00:00.00 221552  511 Team Integrate/FFBC p/b Chipot
DNSMatthew Batz   00:00:00.00   Webcor/Alto Velo
DNSChristopher Bosch   San Francisco, CA00:00:00.00 261766   
DNSKiernan McGuire   Mill Valley, CA00:00:00.00 211423   Dolce Vita Cycling
DNSRafael Mendez   Carmel, CA00:00:00.00 286523   Ghost Tree Racing
DNSSteven Ohlhaber   Chicago00:00:00.00 223376   Dolce Vita Racing
DNSRiley Oneal   San Diego, CA00:00:00.00 192343   UC Davis
DNSCarl Hesselein   Arcata, CA00:00:00.00 236332   Revolution Bicycle Repair
DNPJoshua Ballesteros   Brentwood, CA00:00:00.00 262160  505 Third Pillar
DNPBenjamin Weekes   Oakland, CA00:00:00.00 109383  513 Major Motion Cycling Club
DNPC Jeffrey Bramlett   Palo Alto, CA00:00:00.00 202272  514 Third Pillar
DNPMichael Chenoweth   Pensacola, FL00:00:00.00 271708  520 Yokohl Ranch/Sierra Bicycle We
DNPDaniel Civello   Alameda, CA00:00:00.00 264582  522 Kaiser Permanente / Team Oakla
DNPLei Deng   Daly City, CA00:00:00.00 239454  529 Third Pillar
DNPDavid Douglas   Pleasanton, CA00:00:00.00 195436  530 InfoVista Cycling Team
DNPChristian Marsh   Oakland, CA00:00:00.00 255406  551 Metromint Cycling
DNPGaelan Mundorff   Fremont, CA00:00:00.00 196301  559 Third Pillar
DNPBurl Pershall   San Anselmo, CA00:00:00.00 276353  570 Village Peddler
DNPRoland Pieruschka   Stanford, CA00:00:00.00 277391  571 Webcor/Alto Velo
DNPMark Robertson   Oakland, CA00:00:00.00 237380  579 Taleo Racing
DNPWilliam Sinkford   Redding, CA00:00:00.00 256096  586 Godspeed Courier
DNPeric struble   00:00:00.00  589 SERT/TONC
DNPGreg van den Dries   Los Gatos, CA00:00:00.00 264896  596 Proman Hit Squad
DNPSteve Wilson   San Anselmo, CA00:00:00.00 107719  598 VILLAGE PEDDLER

Men - Cat 5

 Place Points NameCity, StateTime USAC #BibTeam
1Robbie Franscioni   00:00:00.00  317 NA
2541.06Christopher Dudley   Reno, NV00:00:00.00 285988  308 Nevada Cycling
3Abe Rotstein   00:00:00.00  336 cabrillo watson
4543.18Christopher Elbo   Oakland, CA00:00:00.00 287728  310 Touchstone Climbing
5544.24Mark Andersen   San Francisco, CA00:00:00.00 290814  300 NA
6545.30Nathanael Dunn   Fair Oaks, CA00:00:00.00 290357  309 NA
7Nathan Trueblood   00:00:00.00  344 Touchstone Climbing
8Michael Parker   00:00:00.00  333 
9Mark Holman   00:00:00.00  323 Unattached
10549.54Steven Thane   Belmont, CA00:00:00.00 286936  342 Peninsula Velo/ Pomodoro
11Harold DeGraff   00:00:00.00  305 Peninsula Velo/Pomodoro
12Krishna Dole   00:00:00.00  326 
13552.72Timothy Dent   Sanfrancisco, CA00:00:00.00 285491  306 Team Roaring Mouse
14553.78NICO CERNA   Salinas, CA00:00:00.00 242278  304 VOS/Cycles Gladiator Racing
15554.84roger hogan   Fresno, CA00:00:00.00 285192  322 Rubber Soul/CSC Racing Team
16555.90Arley Lewis   San Carlos, CA00:00:00.00 269935  328 Field of Rabbits
17Josh Felder   00:00:00.00  313 NA
18Denin Sahovic   00:00:00.00  337 SugarCRM
19nicholas fasanella   00:00:00.00  312 NA
20Ricardo Rodriguez   00:00:00.00  335 unattached
21561.20Adam Garcia   San Francisco, CA00:00:00.00 286990  318 Taleo Racing
22562.26Ryan Johnson   San Francisco, CA00:00:00.00 288483  325 NA
23563.32Kyle Rose   San Francisco, CA00:00:00.00 276124  324 Team Type 1
24564.38ryan thompson   San Mateo, CA00:00:00.00 286456  343 Pen Velo Pomodoro
25565.44Chris Scheetz   Los Altos, CA00:00:00.00 216916  338 NA
26John Behring   00:00:00.00  301 Peninsula Velo / Pomodoro
27Charles Wiesner   00:00:00.00  346 Big SWINGIN' Cycles
28568.62Robert Gaukel   Santa Cruz, CA00:00:00.00 261233  319 Bicycle Trip
29569.68Philip Schroder   Winston-salem, NC00:00:00.00 266009  339 Wake Forest Cycling
30570.74Dominick Foster   Fresno, CA00:00:00.00 289636  316 Vapor Racing
31Ken Olofsen   00:00:00.00  332 Mission Cycling
32572.86Dirk Rohloff   Los Gatos, CA00:00:00.00 262233  331 Fightin' Bobas
33Nick Tuttle   00:00:00.00  334 
34574.98Justin Fortune   Novato, CA00:00:00.00 286278  315 Zteam
35Mark Flynn   00:00:00.00  314 SJBC/SugarCRM
36577.10Zack Berman   San Francisco, CA00:00:00.00 284981  302 NA
37578.16Scott Hellam   Fresno, CA00:00:00.00 287510  321 Rubber Soul/CSC
38579.22Johannes Kratz   Cambridge, MA00:00:00.00 286729  327 Webcor / Alto Velo
39580.28Yuri Zhovnirovsky   Albany, CA00:00:00.00 265206  348 Field Of Rabbits
40Reed Azevedo   00:00:00.00  303 
41Kevin Grundmann   00:00:00.00  320 Peninsula velo/ pomodoro
42583.46Tom Lippman   Menlo Park, CA00:00:00.00 286773  329 Stanford University
43584.52Gerald Sylverster   Mountain View, CA00:00:00.00 289113  341 Webcor / Alto Velo
44585.58John McCann   Mountainview, CA00:00:00.00 289939  330 NA
45586.64matthew valencia   Los Altos, CA00:00:00.00 255576  345 SugarCRM/LGBRC
46587.70Oswald Cousins   Sf, CA00:00:00.00 285298  347 
47588.76Matthew Esselstrom   Modesto, CA00:00:00.00 277510  311 Stanislaus County Bicycle Club
48589.82Travis Dubose   Houston00:00:00.00 285589  307 Webcore/Alto Velo
DNSRick Berry   Kingsburg, CA00:00:00.00 271131   Rubber Soul/CSC Racing Team
DNSTad Jacobs   San Rafael, CA00:00:00.00 158371   Dolce Vita
DNSPatrick Kelly   00:00:00.00   Clif Bar
DNSWayne McIntosh   San Rafael, CA00:00:00.00 270440   ZteaM Cycling
DNSJoe Phillips   00:00:00.00   NA
DNSJames Williams   Arcata, CA00:00:00.00 284329   Adventures Edge

Women - Cat 1/2/3

 Place Points NameCity, StateTime USAC #BibTeam
1381.71Brooke Miller   Sebastopol, CA00:00:00.00 196453  Team TIBCO
2386.05Melodie Metzger (1 - Cat2)   Berkeley, CA00:00:00.00 177985  25 Vanderkitten
3390.39Olivia Dillon   Fairfax, CA00:00:00.00 232172  11 Touchstone Climbing
4394.73Alison Rosenthal (1 - Cat1)   Palo Alto, CA00:00:00.00 199109  48 Team TIBCO
5399.07Liza Rachetto   Los Altos, CA00:00:00.00 145511  31 SugarCRM
6403.41Erin Dunn   San Jose, CA00:00:00.00 211891  53 Easton/SugarCRM/Specialized
7407.75Starla Teddergreen   Portland, OR00:00:00.00 202033  36 SugarCRM
8Vanessa Drigo   00:00:00.00  12 Village Peddler
9416.43Mary Elizabeth Maroon   Sacramento, CA00:00:00.00 219555  23 Vanderkitten
10420.77Lindsay Myers   Loma Linda, CA00:00:00.00 272063  26 SugarCRM
11425.11Kate Ligler   Sausalito, CA00:00:00.00 206217  22 Dolce Vita
12429.45Brianna Hand   Oakland, CA00:00:00.00 218318  52 Metromint Cycling on Marin Bik
13433.79Mary Ellen Ash   Menlo Park, CA00:00:00.00 254874  SugarCRM
14438.13Yukie Nakamura   Los Altos, CA00:00:00.00 179928  27 Metromint Cycling
15442.47Lisa Williams (1 - Cat3)   Fresno, CA00:00:00.00 287427  40 Vapor Racing
16446.81Patricia Ross   Hayward, CA00:00:00.00 196563  33 touchstone climbing
17451.15Laurie Furman   Redwood City, CA00:00:00.00 107768  15 Hopkins Honda/ Code 3 Racing
18Nerie Pacios   00:00:00.00  58 Bicisprint
19459.83Amy McGuire   Jamaica Plain, MA00:00:00.00 221594  43 Unattached
20464.17Jennie Phillips   Danville, CA00:00:00.00 203722  45 Wells Fargo Racing Team
21468.51Amanda Seigle   Citrus Heights, CA00:00:00.00 203755  44 Code Three Womens Cycling
22472.85Sarah Bamberger   San Francisco, CA00:00:00.00 179772  Touchstone Climbing
23477.19Kim Ladd   Palo Alto, CA00:00:00.00 250460  20 Hopkins Honda/Code 3 Racing
24481.53Aimee Baker   Menlo Park, CA00:00:00.00 138072  Hopkins Honda/Code3Racing
25485.87Katie Norton   Sacramento, CA00:00:00.00 226927  29 Velo Bella
26490.21Carrie Edwards   Sausalito, CA00:00:00.00 99021  13 Team Roaring Mouse
27494.55Karla Kingsley (2 - Cat1)   Kensington, CA00:00:00.00 219191  19 SugarCRM
28Katheryn Mattis   00:00:00.00  24 Webcor Builders
29503.23Jennifer Van Muckey   Campbell, CA00:00:00.00 207585  37 SugarCRM
30507.57Natasha Perry   Santa Cruz, CA00:00:00.00 215338  56 Velo Bella
31511.91Laurel Green   Windsor, CA00:00:00.00 75728  16 Team Bicisport
32516.25Sue Lovecchio   Pacific Grove, CA00:00:00.00 205235  42 Velo Bella
33520.59Charlotte Hart   Merced, CA00:00:00.00 237583  17 Vanderkitten
34524.93Marian Jamison   Gloucester, MA00:00:00.00 230034  18 Velo Bella
35529.27Rita Szeto   Crockett, CA00:00:00.00 195322  54 NorCal Velo Women's Cycling Te
36Marina Koshevaya   00:00:00.00  50 3rd Pillar
37537.95Mason Cornelius   Dublin, CA00:00:00.00 268258  Code3Racing
38542.29Amy Russo   Santa Cruz, CA00:00:00.00 134488  51 Sho-air/Sonance
39546.63Kimberly Fong (2 - Cat2)   Berkeley, CA00:00:00.00 238713  14 SugarCRM
40550.97Katie Behroozi (2 - Cat3)   Menlo Park, CA00:00:00.00 198244  57 Team TIBCO
41555.31Kimberly White   Grand Junction, CO00:00:00.00 209678  38 Dolce Vita Cycling
42559.65Kelly Bartholomew   San Rafael, CA00:00:00.00 48431  SugarCRM
43563.99Jessica Conner   San Francisco, CA00:00:00.00 181072  Dolce Vita Cycling
44568.33Jill McLaughlin (3 - Cat1)   Los Gatos, CA00:00:00.00 183828  55 Touchstone Climbing
45572.67April Hamlin   El Dorado Hills, CA00:00:00.00 266244  47 Velo Bella
46577.01Kim Wik   Fremont, CA00:00:00.00 254251  39 Hopkins Honda/Code3Racing
47581.35Joanna Bechtel   Oakland, CA00:00:00.00 272856  Code 3 Racing
48Jamie Crawford   00:00:00.00  10 SugarCRM
49590.03Karena Shannon   Castro Valley, CA00:00:00.00 266333  34 Hopkins Honda Women's Cycling/
DNSAndrea Laue (Cat3)   Berkeley, CA00:00:00.00 235762   Metromint Cycling
DNSHeather Nielson   Seattle, WA00:00:00.00 237346   Colavita/Sutter Home Northern
DNSStacy Sims   Menlo Park, CA00:00:00.00 261429   Team TIBCO
DNPElis Bradshaw   Oakland, CA00:00:00.00 208125  Metromint Cycling
DNPKimberley Payne   Campbell, CA00:00:00.00 51589  30 Team Integrate/FFBC powered by Chipotle
DNPHolly Roberts   Sunnyvale, CA00:00:00.00 203177  32 SugarCRM
DNPJennifer Zierke   Millbrae, CA00:00:00.00 275670  41 Colavita/Sutter Home Northern
DNPMelissa Frost (Cat3)   Berkeley, CA00:00:00.00 219774  46 Metromint Cycling on Marin Bik
DNPAlison Starnes   Mill Valley, CA00:00:00.00 266806  49 Dolce Vita Cycling

Women - Cat 3

 Place Points NameCity, StateTime USAC #BibTeam
1527.67Brianna Hand   Oakland, CA00:00:00.00 218318  129 Metromint Cycling on Marin Bik
2529.01Julie Nevitt   Saratoga, CA00:00:00.00 136522  116 SJBC/SugarCRM
3530.35Kim Wik   Fremont, CA00:00:00.00 254251  125 Hopkins Honda/Code3Racing
4531.69Kim Ladd   Palo Alto, CA00:00:00.00 250460  112 Hopkins Honda/Code 3 Racing
5533.03Angela Aldrich   San Jose, CA00:00:00.00 222858  131 SJBC/SugarCRM
6534.37Beverly Chaney   Carmel, CA00:00:00.00 221127  130 ROARING MOUSE CYCLES
7535.71Laurie Simonson   Burlingame, CA00:00:00.00 138341  122 Metromint Cycling
8537.05Karena Shannon   Castro Valley, CA00:00:00.00 266333  121 Hopkins Honda Women's Cycling/
9538.39Anne Fulton   Palo Alto, CA00:00:00.00 275624  109 NA
10539.73Katie Norton   Sacramento, CA00:00:00.00 226927  118 Velo Bella
11541.07Marissa Axell   El Cerrito, CA00:00:00.00 269569  101 Team Roaring Mouse
12542.41Christina Yglesias   Cupertino, CA00:00:00.00 264750  126 Proman Hitsquad
13543.75Morgan Bonar   Oakland, CA00:00:00.00 247685  132 Chico Corsa Cycling Team
14545.09April Hamlin   El Dorado Hills, CA00:00:00.00 266244  110 Team Integrate/FFBC p/b Chipot
16547.77Jessica Conner   San Francisco, CA00:00:00.00 181072  105 Dolce Vita Cycling
17549.11Kimberley Payne   Campbell, CA00:00:00.00 51589  133 Team Integrate/FFBC powered by Chipotle
18550.45amy padula   San Francisco, CA00:00:00.00 255277  119 Touchstone Climbing
19551.79Birgit Cory   San Francisco, CA00:00:00.00 224694  107 CRC/Poggio
20553.13Jennifer Zierke   Millbrae, CA00:00:00.00 275670  127 Colavita/Sutter Home Northern
21554.47Carrie Edwards   Sausalito, CA00:00:00.00 99021  108 Team Roaring Mouse
22555.81Monique Quandt   Oakland, CA00:00:00.00 196320  120 Metromint Cycling
23557.15Josephine Morgan   Oakland, CA00:00:00.00 242553  115 SugarCRM
24558.49Marian Jamison   Gloucester, MA00:00:00.00 230034  111 Velo Bella
25559.83Bergen Watterson   Durham, NC00:00:00.00 271593  123 Team Roaring Mouse
26561.17Daniela Becker   San Francisco, CA00:00:00.00 271980  104 Team Roaring Mouse
27562.51Melissa Frost   Berkeley, CA00:00:00.00 219774  128 Metromint Cycling on Marin Bik
28563.85Julie Baird   Burlingame, CA00:00:00.00 187930  102 Metromint Cycling
29565.19Andrea Laue   Berkeley, CA00:00:00.00 235762  113 Metromint Cycling
30566.53Kimberly White   Grand Junction, CO00:00:00.00 209678  124 Dolce Vita Cycling
DNSHeather Nielson   Seattle, WA00:00:00.00 237346   Colavita/Sutter Home Northern
DNPSoni Andreini Poulsen   Arnold, CA00:00:00.00 235758  100 Velo Bella
DNPJoanna Bechtel   Oakland, CA00:00:00.00 272856  103 Code 3 Racing
DNPLucia Mokres   Redwood City, CA00:00:00.00 262113  114 SugarCRM
DNPMason Cornelius   Dublin, CA00:00:00.00 268258  106 Code3Racing

Women - Cat 4

 Place Points NameCity, StateTime USAC #BibTeam
1540.00Elizabeth Newell   Oakland, CA00:00:00.00 252152  212 Veritas Cycling
2541.72Elizabeth Welliver   Spreckels, CA00:00:00.00 267230  223 Velo Bella
3543.44Emily Matheu   Oakland, CA00:00:00.00 277109  228 ROARING MOUSE CYCLES
4Beate Heckner   00:00:00.00  204 Early Bird Women
5546.88Kimberly Sudbrink   Santa Cruz, CA00:00:00.00 271314  218 Team Bicycle Trip
6548.60Ashley Shimabuku   El Cerrito, CA00:00:00.00 271338  215 Team Roaring Mouse
7550.32Carole Sykes   Tiburon00:00:00.00 270735  219 SugarCRM
8552.04Tracy Hogan   Portola Valley, CA00:00:00.00 246822  206 Third Pillar
9553.76Carmen Elliott   San Jose, CA00:00:00.00 106103  227 Unattached
10Rebecca Balon   00:00:00.00  201 Early Bird Women's Development
11557.20Chris Lundy   Sausalito, CA00:00:00.00 225187  208 ZTeam
12558.92Ann Kodani   Mountain View, CA00:00:00.00 143018  207 Velo Girls
13560.64Rebecca Butz   Redwood City, CA00:00:00.00 272811  232 Roaring Mouse Cycles
14562.36Samantha Michel   Fremont, CA00:00:00.00 271101  211 SugarCRM
15564.08Dominique van den Dries   Los Gatos, CA00:00:00.00 255641  221 Proman Hit Squad
16565.80Lisa Tepper   San Ramon, CA00:00:00.00 195409  224 Metromint on Marin Bikes
17567.52Emily Weinert   Atlanta, GA00:00:00.00 282470  222 Velo Girls
18569.24Beth Butrymowicz   Campbell, CA00:00:00.00 267372  202 SugarCRM
19570.96Kelly Snow   San Francisco, CA00:00:00.00 255117  216 Dolce Vita
20572.68Lisa Hern   Los Gatos, CA00:00:00.00 258499  205 SugarCRM
21574.40Kerry Stivaletti   Los Gatos, CA00:00:00.00 239419  217 Team SugarCRM
22576.12Meghan Quinlan   San Francisco, CA00:00:00.00 274445  225 Unattached
23577.84Brandi Bergstrom   San Francisco, CA00:00:00.00 264433  226 Dolce Vita Cycling
24579.56Jamie Taylor   San Diego, CA00:00:00.00 282498  220 I.E. Bikes
25Lina Martensson   00:00:00.00  210 NA
26583.00Tara Taylor   San Francisco, CA00:00:00.00 289125  231 
27584.72Alissa Maglaty   Portland00:00:00.00 288500  209 Early Bird Women's Development
28586.44Kira Prokopakis   Santa Clara, CA00:00:00.00 283149  214 Sugar CRM
29588.16Kim Perez   Redwood City, CA00:00:00.00 196318  229 Protech Racing
30589.88Stephanie Dameral   Vacaville, CA00:00:00.00 287351  203 Early Bird Women
DNSJune Nguyen   Santa Rosa00:00:00.00 277526   Norcal Velo Women Cycling Team
DNPRene' Baker   Los Gatos, CA00:00:00.00 235868  200 Sugar CRM

Women - Cat 4 - Master - 35-99

 Place Points NameCity, StateTime USAC #BibTeam
1537.22Sonja Klein   Oakland, CA00:00:00.00 272558  256 Left Coast Racing Team
2540.19Lisa Stefke   Berkeley, CA00:00:00.00 255542  262 Left Coast Racing Team
3543.16Cheryl Shwe   San Francisco, CA00:00:00.00 271152  261 ZTeam
4546.13Kim Nutt   Atwater, CA00:00:00.00 232690  259 Stanislaus/Merlock Velo
5549.10Monica Holt   Saratoga, CA00:00:00.00 268263  264 Code 3 Racing
6552.07Sherri Lehman   Gold River, CA00:00:00.00 274098  257 Team Integrate/FFBC p/b Chipot
7555.04Jeanine Bates   San Francisco, CA00:00:00.00 195292  250 Hopkins Honda/Code 3 Racing
8558.01Carla Cosentino   Los Gatos, CA00:00:00.00 255734  253 Hopkins Honda/Code3 Racing
9560.98Brett Ortiz   San Francisco, CA00:00:00.00 271361  260 Zteam
10563.95G Evan Evans   San Mateo, CA00:00:00.00 237009  266 Code 3 Racing
11566.92Sofia Veniard   Santa Rosa, CA00:00:00.00 280847  263 Colavita Racing
12569.89Jill Eyres   Montara, CA00:00:00.00 282468  254 Velo Girls
13572.86Lesley Galloway   Redwood City, CA00:00:00.00 109000  267 Code 3 Racing
14575.83Vanessa Cairns   San Jose, CA00:00:00.00 282467  251 Velo Girls
15578.80Norma Hilton   Pacifica, CA00:00:00.00 196223  268 Protech Racing
16581.77Cathy Morgan   Nashville, TN00:00:00.00 204300  258 Team Roaring Mouse
17584.74Marja Nousiainen   Menlo Park, CA00:00:00.00 203255  265 ROARING MOUSE CYCLES
18587.71Katy JossY   Hayward, CA00:00:00.00 269571  255 Team Roaring Mouse
DNPCara Coburn   San Francisco, CA00:00:00.00 271371  252 Team Roaring Mouse

Report missing or incorrect license numbers

Volkswagen
ShimanoSierra NevadaBonk BreakerUSACDFSpy
UCI USA Cycling is the official governing body for all disciplines of competitive cycling in the United States. The 501c3, membership-based organization aims both to achieve sustained success in international cycling competition and to grow competitive cycling in America while delivering an exceptional customer experience.
View Children's Online Privacy Protection Policy
US Olympic Committee